Regional Weather Roundup
Issued by NWS Cleveland, OH

Home | Current Version | Previous Version | Graphics & Text | Print | Product List | Glossary On
Versions: 1 2 3 4 5 6 7 8 9 10 11 12 13 14 15 16 17 18 19 20 21 22 23 24 25 26 27 28 29 30 31 32 33 34 35 36 37 38 39 40 41 42 43 44 45 46 47 48 49 50
000
ASUS41 KCLE 071002
RWRCLE
OHIO REGIONAL WEATHER ROUNDUP
NATIONAL WEATHER SERVICE CLEVELAND, OH
500 AM EST SUN FEB 07 2016

NOTE: "FAIR" INDICATES FEW OR NO CLOUDS BELOW 12,000 FEET WITH NO
SIGNIFICANT WEATHER AND/OR OBSTRUCTIONS TO VISIBILITY.

OHZ001>008-015>018-024>027-034-035-043-044-071100-
   NORTHWEST OHIO

CITY           SKY/WX    TMP DP  RH WIND       PRES   REMARKS
DEFIANCE       CLEAR     31  24  75 S8        30.06F WCI  23
FINDLAY        MOCLDY    34  26  72 S13       30.07F WCI  25
TOLEDO EXPRESS CLOUDY    32  24  72 S8        30.06F WCI  25
TOLEDO EXEC    MOCLDY    33  25  72 S7        30.07F WCI  27
LIMA           CLEAR     34  25  69 S9        30.07F WCI  27
$$

OHZ009>014-019>023-028>033-038-089-071100-
   NORTHEAST OHIO

CITY           SKY/WX    TMP DP  RH WIND       PRES   REMARKS
CLE-HOPKINS    CLEAR     29  19  66 S6        30.12F WCI  23
CLE-LAKEFRONT  CLEAR     34  22  61 SE9       30.10F WCI  27
CUY CO. ARPT   NOT AVBL
LORAIN-ELYRIA  CLEAR     29  20  69 S7        30.10F WCI  22
ASHTABULA      CLEAR     27  18  69 SE5       30.12F WCI  22
AKRON-CANTON   CLEAR     26  17  68 S6        30.12F WCI  19
WOOSTER        CLEAR     25  19  78 CALM      30.11F
MANSFIELD      CLEAR     29  21  72 S8        30.09F WCI  21
YOUNGSTOWN     CLEAR     27  17  66 S3        30.12F
$$

OHZ042-051>053-060>062-070>072-077>081-071100-
  SOUTHWEST OHIO

CITY           SKY/WX    TMP DP  RH WIND       PRES   REMARKS
CINC-COVINGTON CLEAR     31  23  72 S7        30.13F WCI  24
CINC-LUNKEN    CLEAR     25  24  96 CALM      30.17F
HAMILTON       CLEAR     24  22  91 CALM      30.15F
DAYTON         CLEAR     33  24  69 SW10      30.11F WCI  25
WRIGHT-PAT AFB CLEAR     27  21  77 SE2       30.11F
DAYTON GENERAL CLEAR     30  21  69 S5        30.11F WCI  25
WILMINGTON     CLEAR     32  23  69 SW5       30.12F WCI  27
$$

OHZ036-037-039>041-045>050-054>059-063>069-073>076-082>088-071100-
  CENTRAL AND SOUTHEAST OHIO

CITY           SKY/WX    TMP DP  RH WIND       PRES   REMARKS
COLUMBUS       CLEAR     26  20  77 CALM      30.13F
OSU AIRPORT    CLEAR     27  22  81 CALM      30.12F
BOLTON FIELD   NOT AVBL
RICKENBACK AFB NOT AVBL
NEWARK         PTCLDY    22  18  85 CALM      30.13F
MARION         CLEAR     31  21  66 SW8       30.10F WCI  23
LANCASTER      CLEAR     24  19  81 CALM      30.13F
ZANESVILLE     PTCLDY    24  17  74 CALM      30.14F
NEW PHILLY     CLEAR     21  18  88 E3        30.15F
$$



USA.gov is the U.S. government's official web portal to all federal, state and local government web resources and services.